TITAN 3C TRANSTAGE R/B, 1863

Orbit data source: Space-Track

TITAN 3C TRANSTAGE R/B, 1863 is space debris in HEO originally from a launch on Tue, 21 Dec 1965 UTC launched from the Air Force Eastern Test Range (AFETR). Debris objects in space refer to the collection of defunct objects orbiting the Earth. Examples of debris include non-operational satellites, rocket bodies, and fragments generated from explosions, collisions, or faulty payload assembly.

Loading next visibility...
TITAN 3C TRANSTAGE R/B details
Identifier
1863, 1965-108A
Orbit
HEO
Last TLE update2 days ago
Origin
Flag of USUSAF SSD (US)
ManufacturerMartin Marietta
MissionSpacecraft
Bus & MotorTRANSTAGE, Unknown motor
Mass~2,050 kg wet, 1,950 kg dry
Launch date (UTC)
1965-12-21 (59 years ago)
Launch vehicleUnknown
Launch site
Air Force Eastern Test Range (AFETR)
Object type
Payload
Rocket body
Debris
Shape & HBRCyl + 2 Nozzle, 4.6 m
Radar Cross Section14.974 m², Large (>1 m²)

Expand to show TLE details & history

TLE from 2 days ago
0 TITAN 3C TRANSTAGE R/B
1  1863U 65108A   25045.77206171  .00006264  00000-0  20887-2 0  9990
2  1863  26.7096 217.9901 6042862 238.4433  48.8339  3.94897255349131
Epoch: 2025-02-14T18:31Z
Definitive object data (Epoch: 2025-02-14T18:31:46.131Z)
Latitude-0.00016°
Longitude154.97177°
Altitude9,311.463 km
Speed5.219 km/s
True Right ascension14h 31m 46s
True Declination0° 00' 01"
Sunlit
Object was in daylight at TLE epoch
Visualization TLE readout
Latitude-26.79921°
Longitude66.15447°
Altitude709.481 km
Speed9.432 km/s
Apparent Right ascension11h 22m 50s
Apparent Declination-44° 58' 55"
Sunlit
Object is in full shadow
Visualization observer readout
Local Sidereal Time03:19:04
Azimuth116.977° SE
Elevation-47.099°
Doppler factor1
Orbital elements
Apogee altitude20,752.089 km
Perigee altitude313.814 km
Semi-major axis16,911.089 km
Eccentricity0.6042862
Inclination26.7096°
RAAN217.9901°
Arg. of periapsis238.4433°
True anomaly121.56801°
Mean anomaly48.8339°
Eccentric anomaly83.21442°
Mean motion0.98693 °/min
BSTAR0.0020887
Orbital period364.77 mins
Loading maneuver chart data...

TITAN 3C TRANSTAGE R/B Visibility forecast

Observer location: undefined°, undefined

Span
Click to sort rows by Start time (UTC) header in descending order
Start Az.
Max El. time (UTC)
Max El. Az.
Max El.
End time (UTC)
End Az.
294 mins2025-02-17 13:12:33.546Z221.406° SW2025-02-17 16:27:33.546Z167.25° S43.456°2025-02-17 18:06:33.546Z106.982° ESE
39 mins2025-02-17 23:40:33.546Z277.921° WNW2025-02-18 00:07:33.546Z257.163° W13.019°2025-02-18 00:19:33.546Z232.734° WSW
|